Location: Palomar Mountain Lodge
(33.3110°N, 116.8495°W)
Time: 18:33:24
(UTC-08:00)

Daily predictions for brighter satellites

Satellite Brightness Start Highest point End
(mag) Time Altitude Azimuth Time Altitude Azimuth Time Altitude Azimuth
Cosmos 1727 Rocket 4.4 16:56:31 10° N 17:02:23 41° E 17:08:08 10° SSE
Geosat 4.5 16:59:13 10° NNE 17:04:11 65° WNW 17:09:08 10° SW
Cosmos 1300 Rocket 4.0 17:00:34 10° N 17:04:43 39° E 17:08:48 10° SSE
Cosmos 1356 Rocket 3.6 17:02:09 10° SSW 17:06:11 77° W 17:10:21 10° N
Cosmos 540 Rocket 3.4 17:01:40 10° NNW 17:06:46 69° ENE 17:11:50 10° SSE
Cosmos 1607 4.5 17:01:12 10° SW 17:07:33 63° WNW 17:13:54 10° NNE
Meteor 1-18 Rocket 4.2 17:02:16 10° S 17:07:46 67° E 17:13:16 10° NNE
Cosmos 1674 Rocket 3.6 17:09:31 10° S 17:13:50 61° E 17:18:12 10° NNE
AQUARIUS 4.2 17:09:31 10° SSE 17:13:56 60° ENE 17:18:21 10° N
Cosmos 1339 Rocket 4.4 17:08:59 10° N 17:15:02 69° E 17:21:03 10° SSE
Cosmos 2151 Rocket 3.6 17:10:52 10° N 17:15:21 67° E 17:19:47 10° SSE
Shenzhou-11 Module 1.8 17:15:58 10° WSW 17:18:51 79° NNW 17:21:30 12° ENE
Okean 1 3.3 17:16:33 10° S 17:20:34 89° W 17:24:37 10° N
SEDSat Delta rocket 4.1 17:13:55 10° W 17:20:39 77° S 17:26:50 10° E
BREEZE-M R/B 3.2 17:23:26 10° NW 17:27:37 35° NNE 17:31:03 10° E
Delta 2 Rocket 3.3 17:24:50 10° W 17:28:30 62° N 17:31:53 14° ENE
Okean-O 4.1 17:26:13 10° S 17:30:22 41° W 17:34:34 10° NNW
CZ-4 R/B 1.9 17:26:56 10° SE 17:30:49 38° ENE 17:34:44 10° N
Cosmos 2322 3.9 17:25:30 10° S 17:30:58 54° ESE 17:36:28 10° NNE
Ariane Rocket 3.7 17:30:00 10° SE 17:34:21 30° ENE 17:38:41 10° N
GPS 2-04 Rocket1 2.9 17:32:40 10° WNW 17:36:49 75° SSW 17:41:01 10° ESE
Lacrosse 5 rocket 1.8 17:32:41 10° SW 17:37:18 70° NW 17:41:37 12° NNE
SL-16 R/B 3.8 17:33:16 10° SW 17:38:16 32° WNW 17:43:18 10° N
Cosmos 2237 4.2 17:36:38 10° SSW 17:42:17 80° ESE 17:47:59 10° NNE
Meteor 1-19 Rocket 4.1 17:37:41 10° S 17:43:08 78° E 17:48:40 10° N
DELTA 2 R/B (1) 4.0 17:38:10 10° WNW 17:43:42 65° SSW 17:49:11 10° SE
SL-23 DEB 4.2 17:38:12 10° SW 17:44:32 89° SE 17:47:17 19° NE
Cosmos 968 Rocket 3.8 17:39:24 10° SSW 17:44:37 71° WNW 17:49:53 10° NNE
Meteor 2-9 Rocket 4.4 17:44:03 10° N 17:49:30 46° ENE 17:54:45 10° SSE
SMAP 4.3 17:48:07 10° S 17:52:32 44° W 17:56:59 10° NNW
Cosmos 1666 3.7 17:48:56 10° NNW 17:52:41 50° W 17:56:25 10° S
COSMO-SKYMED 1 2.5 17:49:19 10° NNE 17:53:40 90° SSE 17:57:59 10° SSW
YAOGAN 1 2.6 17:52:55 10° SSE 17:57:08 56° ENE 18:01:22 10° N
Cosmos 1975 Rocket 3.2 17:52:58 10° SSE 17:57:12 48° E 18:00:22 17° NNE
Meteor 1-13 Rocket 4.1 17:52:06 10° S 17:57:33 67° E 18:03:01 10° NNE
Cosmos 1821 Rocket 4.0 17:56:06 10° S 18:02:26 83° E 18:08:51 10° N
EPKM 3.6 18:01:16 10° SW 18:03:07 20° SSE 18:04:17 17° SE
Cosmos 1743 3.5 18:01:32 10° NNW 18:05:15 52° W 18:08:57 10° S
H-2A R/B 2.7 18:05:59 10° SSE 18:09:51 87° W 18:13:45 10° NNW
Cosmos 1535 Rocket 4.4 18:05:01 10° S 18:11:05 70° E 18:17:16 10° N
BREEZE M DEB (TANK) 3.9 18:08:25 10° NW 18:11:54 53° NE 18:23:25 10° ESE
Cosmos 2219 Rocket 2.3 18:07:25 10° S 18:12:54 54° ESE 18:15:29 30° NE
Timation 1 Rocket 4.2 18:07:51 10° NNW 18:13:48 70° ENE 18:19:42 10° SSE
Cosmos 1844 Rocket 3.0 18:10:05 10° N 18:15:27 43° ENE 18:18:51 21° SE
CZ-2C R/B 3.8 18:13:12 25° NNE 18:15:54 61° E 18:20:35 10° S
Okean 1 Rocket 3.8 18:15:16 10° NNW 18:19:33 53° W 18:23:46 10° S
COSMOS 2428 2.6 18:15:06 10° SSW 18:20:48 80° ESE 18:24:10 26° NNE
Cosmos 2263 Rocket 4.3 18:18:48 10° NW 18:23:33 28° WSW 18:28:16 10° SSW
Meteor 2-4 Rocket 4.0 18:18:24 10° SSW 18:24:05 66° W 18:29:38 10° N
ATLAS 3B R/B 3.8 18:21:29 10° SSE 18:26:18 25° ESE 18:26:18 25° ESE
ISS -1.3 18:26:48 10° WNW 18:29:24 22° SW 18:31:58 10° S
DNEPR-1 R/B 4.2 18:24:39 10° SW 18:29:32 74° WNW 18:32:36 29° NNE
DMSP B5D1-3 4.5 18:25:53 16° N 18:29:59 83° WNW 18:35:05 10° SSW
GPS 2-05 Rocket1 3.8 18:29:55 10° W 18:32:19 40° WSW 18:32:19 40° WSW
USA 238 DEB 3.8 18:28:29 10° S 18:34:55 50° ESE 18:36:05 45° E
USA 238 3.8 18:28:35 10° S 18:35:01 50° ESE 18:36:10 45° E
FengYun 1-2 T 4.1 18:29:41 10° SSE 18:35:11 87° ENE 18:40:46 10° NNW
Envisat 2.8 18:30:45 10° SSE 18:35:46 66° ENE 18:40:48 10° N
Cosmos 2123 Rocket 3.9 18:31:33 10° N 18:37:52 73° E 18:44:10 10° SSE
Meteor 1-23 Rocket 4.1 18:35:11 10° S 18:40:59 86° E 18:44:00 30° N
NOSS 3-2 (A) 4.4 18:36:55 10° S 18:40:12 27° SE 18:40:12 27° SE
Cosmos 2360 Rocket 4.3 18:38:18 10° WSW 18:42:39 23° WNW 18:47:00 10° N
Cosmos 2333 Rocket 2.1 18:40:06 10° SSW 18:45:47 84° WNW 18:47:24 49° NNE
CZ-3B Rocket 4.3 18:42:51 10° SW 18:46:37 23° SSE 18:50:12 18° SE
MOS 1 4.3 18:57:43 10° S 19:03:23 76° WSW 19:09:06 10° NNW
Cosmos 2237 Rocket 3.0 19:00:18 10° S 19:03:43 38° S 19:03:43 38° S
SEDSat Delta rocket 4.1 19:00:50 10° W 19:07:07 55° SSW 19:07:24 54° S
Cosmos 1844 4.1 19:05:06 10° NNW 19:09:30 55° NW 19:09:30 55° NW
Lacrosse 5 rocket 4.3 19:15:34 10° NW 19:17:16 12° NNW 19:17:19 12° NNW
Cosmos 2219 Rocket 4.4 19:53:19 10° W 19:57:09 18° WNW 19:57:16 18° NW
ATLAS 3B R/B 4.3 20:10:28 10° SW 20:13:38 27° WSW 20:13:38 27° WSW
